Location: Skalnate Pleso
(49.1889°N, 20.2450°E)
Time: 13:36:49
(UTC+01:00)

Lacrosse 5 rocket - Pass Details

Date: 19 November 2019
Orbit: 461 x 637 km, 57.0° (Epoch: 14 December)

Event Time Altitude Azimuth Distance (km) Brightness Sun altitude
Exits shadow 06:00:33 12° 302° (WNW) 1,519 2.9 -8.9°
Maximum altitude 06:03:55 73° 217° (SW) 487 1.0 -8.4°
Drops below altitude 10° 06:07:29 10° 133° (SE) 1,609 5.0 -7.8°
Sets 06:09:37 0° 132° (SE) 2,489 6.2 -7.5°
